Regional Weather Roundup
Issued by NWS

Home | Current Version | Previous Version | Graphics & Text | Print | Product List | Glossary On
Versions: 1 2 3 4 5 6 7 8 9 10 11 12 13 14 15 16 17 18 19 20 21 22 23 24 25 26 27 28 29 30 31 32 33 34 35 36 37 38 39 40 41 42 43 44 45 46 47 48 49 50
000
ASUS43 KDTX 220410
RWRMI
MICHIGAN HOURLY REGIONAL WEATHER ROUNDUP
NATIONAL WEATHER SERVICE DETROIT/PONTIAC MI
1100 PM EST TUE FEB 21 2017

NOTE: "FAIR" INDICATES FEW OR NO CLOUDS BELOW 12,000 FEET WITH NO
SIGNIFICANT WEATHER AND/OR OBSTRUCTION TO VISIBILITY.

MIZ047>049-052>055-059>063-066>070-074>076-081>083-220500-
SOUTHEAST LOWER MICHIGAN

CITY           SKY/WX    TMP DP  RH WIND       PRES   REMARKS
ADRIAN         PTCLDY    47  46  97 SW5       29.93F
ALMA           FOG       36  35  99 SW5       29.91R VSB 1/4 WCI  32
ANN ARBOR      PTCLDY    44  43  96 CALM      29.91F
BAD AXE        FOG       32  32 100 CALM      29.90F VSB<1/4
CARO           FOG       37  37  97 CALM      29.90S VSB<1/4
DETROIT CITY   MOCLDY    47  46  97 CALM      29.91F FOG
DETROIT        PTCLDY    48  46  93 S7        29.92F
FLINT          PTCLDY    44  44 100 S5        29.92S FOG
GROSSE ILE     PTCLDY    40  39  97 CALM      29.91F FOG
HILLSDALE      MOCLDY    45  45 100 CALM      29.92S FOG
HOWELL         FOG       48  46  94 CALM      29.91S VSB 1/2

CITY           SKY/WX    TMP DP  RH WIND       PRES   REMARKS
JACKSON        CLOUDY    49  46  90 SW3       29.91F
LAMBERTVILLE   CLOUDY    55  49  82 CALM      29.93S
LANSING        PTCLDY    49  46  90 S6        29.91F FOG
LAPEER         CLOUDY    39  39 100 CALM      29.91S VSB<1/4
MASON          FOG       44  44  99 CALM      29.92S VSB<1/4
MONROE         CLOUDY    47  47  99 S10       29.91F
MT. CLEMENS    PTCLDY    37  37 100 CALM      29.89F FOG
PONTIAC        PTCLDY    41  39  93 CALM      29.90F FOG
PORT HOPE        N/A     34  33  96 CALM      29.88F
PORT HURON     FOG       36  36 100 CALM      29.92F VSB 1/4
TRI CITIES     FOG       46  46 100 SW8       29.90S VSB 1/4
MIDLAND        FOG       36  36  97 CALM      29.89S VSB<1/4
TROY           CLOUDY    48  44  88 W3        29.92F
SAGINAW HB     FOG       43  41  93 S6        29.90R VSB 1/4
$$
MIZ043>046-050>051-056>058-064>065-071>073-077>080-220500-
SOUTHWEST LOWER MICHIGAN

CITY           SKY/WX    TMP DP  RH WIND       PRES   REMARKS
BATTLE CREEK   CLOUDY    49  48  97 CALM      29.91F FOG
BENTON HARBOR  FOG       50  47  89 CALM      29.88F VSB 1
BIG RAPIDS     FOG       38  37  95 CALM      29.89S VSB 1/4
COLDWATER      CLOUDY    47  47 100 SE5       29.92S FOG
FREMONT        FOG       43  43 100 CALM      29.88S VSB 1/4
HOLLAND        FOG       51  50  96 S5        29.90S VSB 1/4
GRAND RAPIDS   FOG       51  50  96 S7        29.90S VSB 1/4
IONIA          FOG       46  45  99 CALM      29.90S VSB<1/4
KALAMAZOO      CLOUDY    50  47  89 W3        29.92S FOG
LUDINGTON      CLOUDY    43  41  92 SE3       29.85F
MARSHALL       FOG       45  45  99 CALM      29.91F VSB 1/4
MOUNT PLEASANT FOG       38  37  98 CALM      29.89S VSB 3/4
MUSKEGON       FOG       48  47  96 SE3       29.89S VSB 1/4
SOUTH HAVEN    CLOUDY    49  49 100 CALM      29.89F FOG
$$
MIZ016>042-220500-
NORTHERN LOWER MICHIGAN

CITY           SKY/WX    TMP DP  RH WIND       PRES   REMARKS
ALPENA         PTCLDY    30  30 100 CALM      29.87S
BEAVER ISLAND  MOCLDY    47  34  60 SW9       29.80F
BELLAIRE       MOCLDY    34  32  94 CALM      29.83F
CADILLAC       CLOUDY    41  40  94 S3        29.86S
CHARLEVOIX     MOCLDY    49  38  65 S7        29.84S
FRANKFORT      CLOUDY    48  40  73 SE8       29.82F
GAYLORD        PTCLDY    43  32  65 S6        29.84F
GRAYLING       PTCLDY    34  32  93 CALM      29.87S
HARBOR SPRINGS PTCLDY    36  35  95 CALM      29.82S
HOUGHTON LAKE  CLOUDY    44  41  89 S8        29.88S
MANISTEE       MOCLDY    43  40  89 SE5       29.83F
OSCODA         FOG       36  35  96 SW6       29.89R VSB 1/4 WCI  31
PELLSTON       PTCLDY    32  29  88 CALM      29.83S
ROGERS CITY    PTCLDY    37  36  96 SE5       29.85F WCI  33
TRAVERSE CITY  PTCLDY    50  41  71 SW5       29.82F
$$
MIZ007>008-015-220500-
EASTERN UPPER MICHIGAN

CITY           SKY/WX    TMP DP  RH WIND       PRES   REMARKS
KINROSS        CLOUDY    34  34 100 SE3       29.82S
MACKINAC ISLAN CLOUDY    40  37  90 S7        29.82R WCI  35
NEWBERRY       PTCLDY    37  37  97 S10       29.78F WCI  30
S. S. MARIE    FOG       37  36  96 E3        29.82S VSB 1/4
MUNISING         N/A     47  35  63 S7        29.74S
$$
MIZ004>006-011>014-085-220500-
CENTRAL UPPER MICHIGAN

CITY           SKY/WX    TMP DP  RH WIND       PRES   REMARKS
MANISTIQUE     CLOUDY    37  36  97 S9        29.78F WCI  30
ESCANABA       PTCLDY    40  35  83 S3        29.77F
MENOMINEE      PTCLDY    48  38  68 SW7       29.78F
SAWYER-GWINN   CLOUDY    44  33  65 S9        29.74F
$$
MIZ001>003-009>011-084-220500-
WESTERN UPPER MICHIGAN

CITY           SKY/WX    TMP DP  RH WIND       PRES   REMARKS
IRON MOUNTAIN  MOCLDY    45  32  60 SE5       29.73F
HOUGHTON       CLOUDY    41  30  65 E7        29.68F
COPPER HARBOR    N/A     38  32  79 W8        29.68F WCI  32
IRONWOOD       CLOUDY    49  36  61 SW7       29.67F
$$

ABBREVIATIONS USED IN REMARKS
   TC - TEMPERATURE IN CELSIUS
  WCI - WIND CHILL INDEX
   HX - HEAT INDEX
  VSB - VISIBILITY




USA.gov is the U.S. government's official web portal to all federal, state and local government web resources and services.